Temperature
17 17 17 17 17 17 17 17 17 17 17 17 17 17 17 17 17 17 17 17 17 17 17 17 16 16 16 16 16 16 16 16 16 16 16 16 16 16 16 15 15 15 15
17 17 17 17 17 17 17 17 17 17 17 17 17 17 17 17 16 16 17 17 17 17 17 17 16 16 16 16 16 16 16 16 16 16 16 16 16 16 16 16 15 15 15
17 17 17 17 17 17 17 17 17 17 17 17 17 17 17 17 17 16 16 16 17 17 17 17 17 16 16 16 16 16 16 16 16 16 16 16 16 16 16 15 15 15 15
17 17 17 17 17 17 17 17 17 17 17 17 17 17 17 17 17 17 17 16 16 16 17 17 17 17 16 16 16 16 16 16 16 16 16 16 16 16 15 15 15 15 15
17 17 17 17 17 17 17 17 17 17 17 17 17 17 17 17 17 17 17 16 16 16 16 17 17 17 17 16 16 16 16 16 16 16 16 16 16 15 15 15 15 15 15
17 17 17 17 17 17 17 17 17 17 17 17 18 17 17 17 17 17 17 17 16 16 16 16 16 16 17 17 16 16 16 16 16 16 16 16 16 16 15 15 15 15 15
17 17 17 17 17 17 17 17 17 17 17 17 17 18 17 17 17 17 17 17 17 17 16 16 16 16 16 16 16 16 16 16 16 16 16 16 16 15 15 15 15 15 15
17 17 17 17 17 17 17 17 17 17 17 17 17 18 18 18 17 18 17 17 17 17 17 17 16 16 16 16 16 16 16 16 16 16 16 16 15 15 15 15 15 15 15
17 17 17 17 17 17 17 17 17 17 17 17 17 18 18 19 19 18 17 17 17 17 17 17 16 16 16 16 16 16 16 16 16 16 16 16 15 15 15 15 15 15 15
17 17 17 17 17 17 17 17 17 17 17 17 17 17 17 18 18 18 18 18 17 17 17 17 17 16 16 16 16 16 16 16 16 16 16 15 15 15 15 15 15 14 14
17 17 17 17 17 17 17 17 17 17 17 17 17 17 17 17 17 18 18 18 17 17 17 17 17 16 16 16 16 16 16 16 16 16 15 15 15 15 15 15 14 14 14
17 17 17 17 17 17 17 17 17 17 17 17 17 17 17 17 18 18 18 18 17 17 17 17 16 16 16 16 16 16 16 16 16 16 15 15 15 15 15 14 14 14 14
17 17 17 17 17 17 17 17 17 17 17 17 17 17 17 17 17 18 18 18 17 17 16 16 16 16 16 16 16 16 16 16 16 15 15 15 15 15 14 14 14 14 14
17 17 17 17 17 17 17 17 17 17 17 17 17 17 17 17 17 17 17 17 17 17 16 16 16 16 16 16 15 15 15 15 15 15 15 14 14 14 14 14 13 13 13
17 17 17 17 17 17 17 17 17 17 17 16 16 16 16 17 16 16 16 17 17 16 16 15 15 15 15 15 15 15 15 15 14 14 14 14 14 13 13 13 13 13 13
17 17 17 17 17 17 17 17 16 17 16 16 16 16 16 16 16 16 16 16 16 16 15 15 15 15 15 14 14 14 14 14 14 14 13 13 13 13 13 13 12 12 12
17 17 17 17 16 16 16 16 16 16 16 16 16 16 16 16 16 16 16 16 16 15 15 15 14 14 14 14 14 13 13 13 13 13 12 12 12 12 12 12 11 11 11
17 17 16 16 16 16 16 16 16 16 16 16 16 16 16 16 16 16 15 15 15 15 15 14 14 13 13 13 13 13 12 12 12 12 12 11 11 11 11 11 10 10 10
16 16 16 16 16 16 16 16 16 16 16 16 16 15 15 15 15 15 15 15 15 14 14 14 14 13 13 12 12 12 11 11 11 11 11 10 10 10 10 10 9 9 9
16 16 16 16 16 16 15 15 15 15 15 15 15 15 15 15 15 15 14 14 14 14 14 14 13 12 12 12 11 11 11 10 10 10 10 10 9 9 9 9 8 8 8
16 16 16 16 15 15 15 15 15 15 15 15 15 15 14 14 14 14 14 14 14 14 13 13 13 12 11 11 11 11 10 10 9 9 9 8 8 8 8 8 8 8 7
16 15 15 15 15 15 15 15 15 15 15 14 14 14 14 14 14 14 14 14 13 13 13 12 12 12 11 11 10 10 10 9 9 8 8 8 8 7 7 7 7 7 7
15 15 15 15 15 15 15 15 15 14 14 14 14 14 13 13 13 13 13 13 13 12 12 12 11 11 11 10 10 9 9 9 8 8 8 7 7 7 7 6 6 6 6
15 15 15 15 15 15 14 14 14 14 14 13 13 13 13 13 13 12 12 12 12 12 11 11 11 10 10 10 9 9 9 8 8 7 7 8 7 7 7 6 6 6 6
15 15 15 14 14 14 14 13 13 13 13 13 12 12 12 12 12 12 12 11 11 11 11 10 10 10 10 9 9 9 8 9 8 7 7 7 7 7 6 6 6 5 5
14 14 14 14 14 14 13 13 13 13 12 12 12 12 11 11 11 11 11 11 10 10 10 9 9 9 9 8 8 8 8 8 8 8 6 6 7 7 7 6 6 5 5
Wind_Speed
5 5 4 4 4 5 6 4 4 4 4 5 4 4 3 3 3 4 8 9 8 8 8 8 8 8 8 8 8 8 8 7 7 7 7 6 6 7 7 7 6 6 6
5 5 5 4 3 4 3 3 4 4 4 4 3 3 3 4 3 3 5 9 9 8 8 9 9 9 9 9 8 8 8 8 8 7 7 6 7 7 7 7 7 6 6
5 5 4 4 4 4 4 4 3 3 4 4 3 3 3 3 3 3 3 5 9 11 10 9 9 9 9 9 9 9 8 8 8 8 8 8 8 7 7 7 7 7 7
6 5 5 5 4 4 4 3 4 3 3 3 3 3 3 3 4 4 5 5 4 6 10 11 10 10 10 10 10 10 10 9 9 9 9 9 9 8 8 8 8 8 8
7 7 5 4 5 5 4 5 4 3 3 3 3 3 3 4 4 5 4 5 5 5 6 11 11 10 10 10 11 11 11 11 11 11 10 10 10 10 10 10 9 9 9
9 8 6 6 7 5 4 4 3 3 3 4 3 2 3 4 4 4 5 5 6 6 6 7 9 11 11 10 10 11 12 12 12 12 11 11 11 11 11 11 11 10 10
8 8 6 6 6 5 5 6 5 5 5 4 3 3 4 5 5 5 5 4 5 6 6 6 6 6 9 13 12 11 11 11 11 11 11 11 11 11 11 11 11 11 11
9 9 8 7 7 6 7 7 6 5 5 5 4 4 4 5 5 5 5 5 5 5 6 7 7 6 6 6 9 12 11 11 11 11 12 12 12 12 12 12 12 12 12
10 9 9 8 7 7 7 8 8 8 6 5 5 4 4 3 2 4 5 5 4 4 5 5 6 5 5 4 5 9 10 9 9 10 10 11 12 12 12 12 12 12 11
10 10 10 9 8 7 6 8 8 7 7 6 5 6 5 4 3 2 4 4 4 4 4 4 4 4 4 5 4 4 8 8 8 8 8 8 9 10 10 10 9 8 8
9 10 10 8 8 7 7 8 7 8 7 8 6 6 6 5 6 5 3 2 2 3 3 3 2 2 2 2 3 4 7 5 5 5 5 5 6 7 7 6 6 5 5
8 9 9 8 8 7 7 8 8 9 8 8 7 6 6 5 6 5 5 4 3 2 2 1 1 1 2 2 3 8 7 6 5 4 3 4 4 5 5 5 4 4 4
7 8 8 7 7 7 7 7 7 8 8 8 8 7 6 6 6 5 5 5 3 2 2 1 1 1 2 3 5 8 7 7 7 6 6 6 7 7 7 7 7 8 8
6 6 7 7 7 7 7 6 7 7 7 7 8 8 6 6 6 6 5 5 4 3 2 1 1 2 2 3 6 7 7 9 9 9 9 9 9 10 10 11 11 11 10
5 5 6 7 7 7 7 6 6 7 6 7 7 7 7 6 6 6 5 5 5 5 3 3 2 2 3 4 7 7 8 11 11 11 11 11 12 13 13 13 13 13 12
4 5 5 6 6 6 7 6 6 6 6 6 5 5 5 5 5 5 5 5 4 4 3 1 2 3 4 6 9 10 12 15 14 13 14 14 14 14 13 13 13 13 12
4 4 5 5 5 6 6 5 5 5 5 5 5 5 5 5 4 4 4 4 4 4 3 2 2 3 4 5 8 9 10 10 13 15 15 15 15 14 13 13 13 12 12
4 4 4 4 5 5 5 6 5 4 5 5 4 4 4 3 4 4 4 4 4 4 4 5 4 4 4 5 7 7 8 10 12 15 16 15 15 14 14 13 13 12 11
3 3 4 4 5 5 4 4 4 3 3 3 3 3 3 3 3 3 3 3 3 4 4 5 5 4 4 5 6 7 8 8 10 13 14 14 14 14 14 13 12 11 10
3 3 3 3 4 4 3 4 4 3 3 2 1 1 2 2 2 3 3 3 3 4 5 6 6 6 5 5 5 6 6 6 6 8 9 10 12 13 12 12 11 10 10
2 2 2 2 2 2 2 3 4 4 3 3 2 2 2 3 4 2 1 3 4 4 5 6 6 6 5 5 5 4 6 6 5 4 4 6 7 7 8 9 8 8 7
2 3 2 2 2 1 4 3 2 3 3 3 3 4 4 5 7 9 9 8 5 4 5 5 5 6 6 5 5 5 5 5 4 3 3 3 4 4 5 6 7 7 6
3 3 3 3 3 4 6 5 4 4 4 4 4 4 4 5 6 7 9 11 11 11 7 4 6 6 6 6 6 6 5 4 4 4 3 3 2 3 4 7 8 6 5
4 4 4 4 4 6 7 7 7 6 6 6 5 5 6 6 5 6 9 9 9 8 7 6 6 5 5 5 5 6 7 6 5 4 1 1 2 1 3 5 7 5 4
4 4 4 5 5 6 7 7 6 7 7 7 6 6 6 7 7 8 10 10 10 9 13 14 12 11 10 8 5 5 6 5 4 4 1 1 1 1 1 2 5 6 5
5 5 5 5 6 6 6 5 4 6 7 7 7 7 9 8 7 7 9 10 10 8 9 10 10 10 10 9 7 3 3 4 3 3 2 1 1 0 0 1 0 1 3
Wind_Direction
161 152 147 156 162 141 152 155 146 135 142 145 149 146 140 131 130 135 134 152 166 170 172 171 174 175 176 172 170 169 170 169 169 169 169 171 172 170 168 170 170 170 171
165 166 165 168 166 161 146 158 148 161 170 149 152 154 170 155 144 169 152 157 173 182 185 185 186 185 188 187 185 184 187 186 184 184 184 183 185 184 181 184 186 186 188
176 186 174 181 175 167 165 181 172 177 182 171 164 170 180 181 162 188 185 173 173 181 191 195 196 196 195 197 197 195 198 199 197 197 199 199 198 197 198 199 199 199 200
193 204 197 190 180 190 188 182 199 188 186 189 185 194 186 180 185 197 202 201 196 181 182 191 201 204 206 206 206 204 204 206 207 209 210 210 209 209 210 210 211 211 212
203 209 210 191 196 200 203 211 188 210 199 202 202 197 204 199 190 204 205 203 201 211 190 177 194 206 213 214 213 212 210 210 213 215 217 218 219 219 219 220 221 220 220
209 216 211 200 209 205 210 217 205 222 227 223 234 203 214 212 210 206 218 204 203 210 211 197 194 201 209 217 218 215 214 214 214 216 219 222 223 224 225 226 226 227 227
213 220 227 200 215 215 220 215 215 212 222 219 231 223 218 221 215 211 222 224 211 212 213 211 220 213 198 204 214 217 215 213 213 216 219 221 222 222 224 228 230 232 233
220 218 224 223 216 217 221 224 224 236 228 217 237 244 228 208 213 213 207 213 220 210 213 214 215 220 235 201 191 202 212 215 216 218 220 222 224 225 228 231 234 235 235
223 229 224 229 228 228 221 222 223 229 236 228 236 251 262 249 206 192 210 214 216 216 222 220 218 207 213 218 195 191 199 209 217 221 224 226 227 231 234 233 234 236 234
227 228 227 227 229 234 229 229 224 228 235 238 226 241 263 296 275 224 205 197 204 218 228 230 217 201 209 210 201 178 183 202 212 220 224 225 223 224 227 230 230 230 230
228 229 226 224 224 232 234 238 232 231 231 239 239 232 234 237 249 261 249 214 202 207 203 211 219 198 191 197 185 161 158 175 195 205 212 212 211 213 209 209 216 219 222
222 222 224 223 223 227 229 232 233 231 234 240 248 244 236 239 244 246 250 239 217 192 168 170 195 179 170 152 131 116 132 140 145 151 155 155 149 144 142 139 134 125 113
224 220 222 221 223 224 228 229 227 235 232 233 238 246 249 250 252 252 251 251 242 215 173 156 76 147 142 127 114 114 119 124 123 122 120 120 120 118 118 114 108 103 95
233 224 223 222 224 225 229 227 232 231 232 233 239 245 250 252 253 251 249 249 247 232 187 163 90 57 78 95 97 114 108 112 111 109 109 109 109 108 107 102 97 94 90
230 222 223 225 227 228 231 231 233 234 234 235 239 236 240 246 247 252 255 250 250 247 224 167 143 78 91 93 93 100 98 100 104 104 104 104 104 104 103 100 98 95 91
227 221 219 225 226 225 226 228 227 227 231 237 244 248 245 251 246 246 249 253 252 243 234 160 119 105 97 103 94 97 96 97 95 98 99 99 99 98 99 100 100 97 93
215 217 219 222 223 223 222 223 227 229 228 233 238 237 239 250 248 246 239 236 228 216 201 183 128 110 105 104 101 104 104 100 94 94 95 95 95 95 96 97 96 93 91
209 210 210 217 225 224 219 218 223 225 225 227 229 228 235 233 233 245 237 227 217 198 189 177 156 139 121 119 112 109 106 101 99 95 96 95 94 95 94 93 91 91 89
204 207 205 213 223 225 217 213 214 211 213 213 214 217 228 223 228 228 224 220 214 193 173 167 156 137 126 125 119 109 98 96 100 103 100 98 97 97 93 92 93 91 89
199 205 206 209 216 214 210 200 189 184 179 175 180 203 225 213 217 214 209 200 182 169 159 156 150 146 137 134 136 126 114 100 96 101 102 105 105 102 99 96 95 91 87
183 179 176 178 192 196 190 177 174 169 155 141 123 107 90 87 71 69 138 160 164 166 160 157 154 149 145 149 146 139 129 121 100 103 115 116 116 107 106 101 92 82 77
142 136 134 137 143 140 98 112 154 149 143 133 121 103 98 93 91 84 78 76 87 144 161 157 153 151 146 144 139 142 141 141 129 123 123 107 106 102 101 92 87 85 76
127 121 114 110 103 89 91 100 106 125 122 121 118 112 102 98 104 105 95 87 76 73 83 124 139 145 147 151 152 152 146 134 118 134 140 107 98 95 100 93 96 87 80
127 116 106 101 101 94 92 99 105 109 106 106 108 113 113 107 104 112 108 97 85 75 80 95 114 121 128 139 150 147 138 129 116 111 136 107 117 104 100 110 123 116 103
121 113 106 105 103 97 89 97 105 109 103 95 91 93 104 107 100 110 115 111 105 95 84 89 93 98 98 98 111 140 149 146 126 108 77 82 110 117 132 142 146 162 172
121 112 99 96 100 102 92 94 116 120 113 106 94 89 83 89 94 105 122 122 118 115 114 110 108 112 111 108 103 112 142 146 128 114 87 31 87 21 185 135 222 194 203
Height
1578 1578 1579 1580 1583 1583 1584 1585 1586 1586 1587 1588 1589 1590 1590 1591 1592 1592 1592 1591 1592 1593 1593 1594 1595 1596 1597 1598 1599 1599 1600 1601 1602 1603 1603 1604 1604 1605 1605 1606 1606 1606 1607
1578 1579 1579 1581 1583 1584 1585 1586 1587 1587 1588 1589 1589 1590 1591 1591 1591 1592 1593 1592 1592 1593 1593 1594 1595 1596 1597 1598 1598 1599 1600 1601 1602 1602 1603 1603 1604 1604 1605 1605 1606 1606 1606
1577 1579 1580 1581 1583 1584 1584 1585 1586 1587 1588 1589 1589 1590 1591 1591 1591 1592 1593 1593 1593 1592 1593 1593 1594 1595 1596 1597 1598 1599 1599 1600 1601 1602 1602 1603 1603 1604 1604 1605 1605 1605 1606
1576 1578 1580 1582 1582 1583 1585 1585 1587 1587 1588 1589 1589 1590 1590 1590 1590 1591 1592 1592 1593 1594 1593 1593 1593 1594 1595 1596 1597 1598 1598 1599 1600 1601 1601 1602 1602 1603 1603 1604 1604 1604 1605
1576 1577 1579 1580 1581 1583 1584 1585 1586 1587 1588 1588 1589 1589 1589 1590 1590 1590 1591 1591 1591 1592 1593 1592 1592 1593 1594 1594 1595 1596 1597 1598 1598 1599 1600 1600 1601 1601 1602 1602 1602 1603 1603
1575 1577 1578 1579 1581 1582 1583 1584 1585 1585 1586 1587 1588 1588 1589 1589 1589 1589 1590 1590 1590 1591 1592 1592 1592 1592 1592 1593 1593 1594 1595 1596 1597 1597 1598 1599 1599 1600 1600 1600 1601 1601 1601
1573 1575 1577 1578 1579 1580 1581 1583 1583 1584 1585 1586 1587 1587 1587 1587 1587 1587 1588 1589 1589 1590 1590 1590 1591 1591 1591 1591 1592 1592 1593 1594 1595 1595 1596 1597 1597 1597 1598 1598 1599 1599 1599
1571 1573 1574 1576 1578 1578 1579 1580 1581 1583 1584 1585 1586 1586 1586 1587 1585 1586 1586 1586 1587 1588 1588 1589 1589 1589 1590 1590 1590 1590 1591 1592 1592 1593 1594 1594 1595 1595 1596 1596 1596 1597 1597
1568 1570 1572 1573 1575 1576 1577 1578 1579 1580 1582 1583 1583 1584 1584 1584 1584 1584 1584 1585 1585 1586 1586 1587 1587 1587 1587 1588 1588 1588 1589 1590 1590 1591 1592 1592 1593 1593 1593 1594 1594 1594 1594
1565 1567 1568 1570 1571 1573 1574 1575 1577 1578 1579 1580 1581 1581 1582 1582 1582 1582 1582 1582 1583 1583 1584 1585 1586 1586 1586 1586 1586 1586 1587 1588 1588 1589 1589 1590 1590 1590 1591 1591 1591 1591 1591
1562 1563 1565 1566 1568 1569 1571 1572 1573 1575 1576 1577 1578 1579 1579 1580 1580 1581 1580 1581 1581 1581 1581 1582 1583 1584 1584 1584 1584 1584 1585 1585 1586 1586 1587 1587 1588 1588 1588 1588 1588 1589 1589
1558 1560 1561 1563 1564 1566 1567 1568 1570 1571 1572 1573 1574 1576 1576 1577 1577 1578 1578 1578 1578 1579 1579 1580 1580 1581 1581 1582 1582 1582 1583 1583 1584 1584 1584 1585 1585 1585 1585 1585 1585 1586 1586
1555 1556 1558 1559 1560 1562 1563 1564 1566 1567 1568 1569 1570 1571 1573 1573 1574 1575 1575 1575 1576 1576 1576 1577 1577 1578 1579 1579 1579 1580 1580 1580 1581 1581 1582 1582 1582 1582 1583 1583 1583 1583 1583
1552 1553 1554 1555 1557 1558 1560 1561 1562 1563 1565 1565 1567 1568 1569 1570 1571 1571 1572 1573 1573 1574 1574 1574 1575 1576 1576 1577 1577 1577 1578 1578 1578 1579 1579 1580 1580 1580 1580 1580 1580 1580 1580
1549 1550 1551 1552 1553 1554 1555 1557 1558 1559 1561 1562 1563 1564 1565 1566 1566 1567 1568 1569 1570 1570 1571 1571 1572 1573 1574 1574 1574 1575 1575 1575 1576 1577 1577 1577 1577 1577 1577 1577 1578 1577 1577
1545 1546 1548 1549 1550 1551 1552 1553 1554 1556 1557 1558 1559 1560 1561 1562 1563 1564 1564 1565 1566 1567 1567 1568 1569 1570 1571 1572 1572 1572 1572 1573 1574 1574 1575 1575 1575 1575 1575 1575 1575 1574 1574
1543 1544 1545 1546 1547 1548 1549 1550 1551 1553 1554 1555 1555 1556 1557 1558 1559 1559 1560 1561 1562 1563 1564 1564 1565 1566 1568 1569 1569 1570 1571 1571 1571 1572 1572 1573 1573 1573 1573 1573 1572 1572 1572
1540 1541 1542 1543 1544 1545 1546 1547 1548 1549 1550 1551 1552 1553 1553 1554 1554 1555 1556 1556 1557 1559 1560 1561 1562 1563 1565 1566 1567 1568 1569 1570 1570 1570 1570 1571 1571 1571 1571 1571 1570 1570 1570
1538 1539 1540 1540 1541 1542 1543 1544 1545 1546 1547 1548 1548 1549 1550 1550 1550 1551 1552 1553 1554 1555 1557 1558 1559 1561 1562 1564 1565 1566 1567 1568 1568 1568 1569 1569 1569 1569 1569 1569 1569 1568 1568
1536 1537 1537 1538 1539 1540 1540 1541 1542 1543 1543 1544 1545 1546 1546 1547 1547 1548 1548 1549 1550 1552 1554 1555 1556 1558 1560 1561 1563 1564 1565 1566 1567 1568 1568 1568 1568 1568 1568 1568 1567 1567 1566
1535 1535 1536 1536 1537 1538 1538 1539 1539 1540 1540 1541 1542 1543 1543 1544 1544 1545 1546 1546 1548 1550 1551 1552 1554 1556 1558 1559 1561 1562 1563 1564 1565 1567 1567 1568 1568 1568 1568 1567 1566 1566 1565
1533 1534 1534 1535 1535 1536 1536 1537 1537 1538 1538 1539 1540 1540 1541 1541 1542 1543 1543 1544 1546 1547 1548 1550 1551 1553 1555 1557 1559 1560 1562 1563 1564 1566 1566 1567 1567 1568 1567 1567 1565 1565 1564
1533 1533 1533 1533 1534 1534 1534 1535 1535 1536 1536 1537 1538 1538 1539 1539 1540 1541 1542 1542 1543 1544 1546 1548 1549 1551 1553 1554 1556 1558 1560 1562 1562 1564 1565 1566 1566 1567 1566 1565 1564 1564 1563
1532 1532 1532 1533 1533 1533 1533 1534 1534 1535 1535 1536 1536 1537 1537 1538 1538 1540 1540 1541 1542 1543 1544 1546 1548 1550 1552 1554 1555 1557 1559 1560 1562 1562 1564 1566 1566 1566 1566 1565 1564 1563 1562
1531 1532 1532 1532 1532 1532 1533 1533 1534 1534 1534 1535 1536 1536 1537 1537 1538 1539 1539 1540 1541 1542 1544 1546 1547 1549 1551 1553 1555 1557 1559 1560 1561 1562 1563 1564 1564 1565 1565 1565 1563 1562 1561
1530 1531 1531 1531 1532 1532 1532 1533 1534 1534 1534 1535 1535 1536 1536 1537 1538 1538 1539 1540 1540 1542 1544 1546 1547 1549 1551 1553 1554 1556 1558 1560 1560 1561 1561 1562 1563 1564 1564 1564 1563 1562 1561